Time,TemperatureF,DewpointF,PressureIn,WindDirection,WindDirectionDegrees,WindSpeedMPH,WindSpeedGustMPH,Humidity,HourlyPrecipIn,Conditions,Clouds,dailyrainin,SolarRadiationWatts/m^2,SoftwareType,DateUTC
2013-04-19 00:04:00,63.0,56.7,29.98,NE,45,9.0,22.0,80,-99.99,,,0.00,0.00,VWS V14.01,2013-04-19 04:04:00,
2013-04-19 00:09:00,63.0,56.7,29.99,East,90,8.0,13.0,80,-99.99,,,0.00,0.00,VWS V14.01,2013-04-19 04:09:00,
2013-04-19 00:14:00,63.0,56.7,29.99,ESE,112,8.0,11.0,80,-99.99,,,0.00,0.00,VWS V14.01,2013-04-19 04:14:00,
2013-04-19 00:19:00,63.0,56.7,29.98,SE,135,12.0,14.0,80,-99.99,,,0.00,0.00,VWS V14.01,2013-04-19 04:19:00,
2013-04-19 00:24:00,63.0,57.1,29.98,ESE,112,10.0,15.0,81,-99.99,,,0.00,0.00,VWS V14.01,2013-04-19 04:24:00,
2013-04-19 00:29:00,63.0,57.1,29.98,East,90,9.0,10.0,81,-99.99,,,0.00,0.00,VWS V14.01,2013-04-19 04:29:00,
2013-04-19 00:34:00,63.0,57.1,29.98,East,90,10.0,10.0,81,-99.99,,,0.00,0.00,VWS V14.01,2013-04-19 04:34:00,
2013-04-19 00:39:00,63.0,57.4,29.98,ESE,112,9.0,13.0,82,-99.99,,,0.00,0.00,VWS V14.01,2013-04-19 04:39:00,
2013-04-19 00:44:00,63.0,57.4,29.97,ESE,112,16.0,19.0,82,-99.99,,,0.00,0.00,VWS V14.01,2013-04-19 04:44:00,
2013-04-19 00:49:00,63.0,57.4,29.97,ESE,112,13.0,13.0,82,-99.99,,,0.00,0.00,VWS V14.01,2013-04-19 04:49:00,
2013-04-19 00:54:00,63.0,57.8,29.96,East,90,9.0,15.0,83,-99.99,,,0.00,0.00,VWS V14.01,2013-04-19 04:54:00,
2013-04-19 00:59:00,63.0,57.8,29.96,ENE,68,5.0,13.0,83,-99.99,,,0.00,0.00,VWS V14.01,2013-04-19 04:59:00,
2013-04-19 01:04:00,62.0,56.8,29.96,ESE,112,16.0,20.0,83,-99.99,,,0.00,0.00,VWS V14.01,2013-04-19 05:04:00,
2013-04-19 01:09:00,63.0,57.8,29.96,ESE,112,15.0,16.0,83,-99.99,,,0.00,0.00,VWS V14.01,2013-04-19 05:09:00,
2013-04-19 01:14:00,63.0,57.8,29.96,East,90,9.0,14.0,83,-99.99,,,0.00,0.00,VWS V14.01,2013-04-19 05:14:00,
2013-04-19 01:19:00,63.0,57.8,29.95,ESE,112,14.0,22.0,83,-99.99,,,0.00,0.00,VWS V14.01,2013-04-19 05:19:00,
2013-04-19 01:24:00,63.0,57.8,29.94,SE,135,7.0,16.0,83,-99.99,,,0.00,0.00,VWS V14.01,2013-04-19 05:24:00,
2013-04-19 01:29:00,63.0,58.1,29.93,ESE,112,9.0,12.0,84,-99.99,,,0.00,0.00,VWS V14.01,2013-04-19 05:29:00,
2013-04-19 01:34:00,63.0,58.1,29.93,ENE,68,10.0,24.0,84,-99.99,,,0.00,0.00,VWS V14.01,2013-04-19 05:34:00,
2013-04-19 01:39:00,63.0,58.1,29.93,East,90,7.0,16.0,84,-99.99,,,0.00,0.00,VWS V14.01,2013-04-19 05:39:00,
2013-04-19 01:44:00,63.0,57.8,29.92,ENE,68,12.0,25.0,83,-99.99,,,0.00,0.00,VWS V14.01,2013-04-19 05:44:00,
2013-04-19 01:49:00,63.0,57.8,29.92,East,90,7.0,8.0,83,-99.99,,,0.00,0.00,VWS V14.01,2013-04-19 05:49:00,
2013-04-19 01:54:00,63.0,58.1,29.92,NNE,22,4.0,13.0,84,-99.99,,,0.00,0.00,VWS V14.01,2013-04-19 05:54:00,
2013-04-19 01:59:00,63.0,58.1,29.92,ESE,112,8.0,24.0,84,-99.99,,,0.00,0.00,VWS V14.01,2013-04-19 05:59:00,
2013-04-19 02:04:00,63.0,58.1,29.92,ESE,112,16.0,21.0,84,-99.99,,,0.00,0.00,VWS V14.01,2013-04-19 06:04:00,
2013-04-19 02:09:00,63.0,58.1,29.93,East,90,8.0,9.0,84,-99.99,,,0.00,0.00,VWS V14.01,2013-04-19 06:09:00,
2013-04-19 02:14:00,63.0,58.1,29.92,ESE,112,12.0,14.0,84,-99.99,,,0.00,0.00,VWS V14.01,2013-04-19 06:14:00,
2013-04-19 02:19:00,63.0,58.1,29.92,ENE,68,7.0,9.0,84,-99.99,,,0.00,0.00,VWS V14.01,2013-04-19 06:19:00,
2013-04-19 02:24:00,63.0,58.4,29.92,ESE,112,12.0,12.0,85,-99.99,,,0.00,0.00,VWS V14.01,2013-04-19 06:24:00,
2013-04-19 02:29:00,63.0,58.4,29.92,East,90,13.0,25.0,85,-99.99,,,0.00,0.00,VWS V14.01,2013-04-19 06:29:00,
2013-04-19 02:34:00,64.0,59.4,29.91,ESE,112,16.0,17.0,85,-99.99,,,0.00,0.00,VWS V14.01,2013-04-19 06:34:00,
2013-04-19 02:39:00,63.0,58.1,29.92,SE,135,15.0,15.0,84,-99.99,,,0.00,0.00,VWS V14.01,2013-04-19 06:39:00,
2013-04-19 02:44:00,64.0,59.1,29.92,ESE,112,7.0,9.0,84,-99.99,,,0.00,0.00,VWS V14.01,2013-04-19 06:44:00,
2013-04-19 02:49:00,64.0,59.1,29.92,East,90,6.0,6.0,84,-99.99,,,0.00,0.00,VWS V14.01,2013-04-19 06:49:00,
2013-04-19 02:54:00,64.0,59.4,29.91,ESE,112,8.0,8.0,85,-99.99,,,0.00,0.00,VWS V14.01,2013-04-19 06:54:00,
2013-04-19 02:59:00,64.0,59.4,29.91,East,90,10.0,10.0,85,-99.99,,,0.00,0.00,VWS V14.01,2013-04-19 06:59:00,
2013-04-19 03:04:00,64.0,59.4,29.91,SE,135,18.0,18.0,85,-99.99,,,0.00,0.00,VWS V14.01,2013-04-19 07:04:00,
2013-04-19 03:09:00,63.0,58.4,29.91,ESE,112,18.0,18.0,85,-99.99,,,0.00,0.00,VWS V14.01,2013-04-19 07:09:00,
2013-04-19 03:14:00,64.0,59.7,29.91,East,90,8.0,8.0,86,-99.99,,,0.00,0.00,VWS V14.01,2013-04-19 07:14:00,
2013-04-19 03:19:00,63.0,58.8,29.90,SE,135,14.0,14.0,86,-99.99,,,0.00,0.00,VWS V14.01,2013-04-19 07:19:00,
2013-04-19 03:24:00,63.0,58.8,29.90,ESE,112,11.0,11.0,86,-99.99,,,0.00,0.00,VWS V14.01,2013-04-19 07:24:00,
2013-04-19 03:29:00,63.0,58.8,29.90,East,90,14.0,19.0,86,-99.99,,,0.00,0.00,VWS V14.01,2013-04-19 07:29:00,
2013-04-19 03:34:00,63.0,58.8,29.89,ESE,112,18.0,18.0,86,-99.99,,,0.00,0.00,VWS V14.01,2013-04-19 07:34:00,
2013-04-19 03:39:00,63.0,59.1,29.89,ESE,112,13.0,13.0,87,-99.99,,,0.00,0.00,VWS V14.01,2013-04-19 07:39:00,
2013-04-19 03:44:00,63.0,59.1,29.89,ENE,68,12.0,13.0,87,-99.99,,,0.00,0.00,VWS V14.01,2013-04-19 07:44:00,
2013-04-19 03:49:00,63.0,59.1,29.89,ESE,112,8.0,10.0,87,-99.99,,,0.00,0.00,VWS V14.01,2013-04-19 07:49:00,
2013-04-19 03:54:00,63.0,59.1,29.89,ESE,112,9.0,13.0,87,-99.99,,,0.00,0.00,VWS V14.01,2013-04-19 07:54:00,
2013-04-19 03:59:00,63.0,59.1,29.89,ESE,112,8.0,11.0,87,-99.99,,,0.00,0.00,VWS V14.01,2013-04-19 07:59:00,
2013-04-19 04:04:00,63.0,59.1,29.88,SE,135,14.0,19.0,87,-99.99,,,0.00,0.00,VWS V14.01,2013-04-19 08:04:00,
2013-04-19 04:09:00,63.0,59.1,29.88,East,90,11.0,16.0,87,-99.99,,,0.00,0.00,VWS V14.01,2013-04-19 08:09:00,
2013-04-19 04:14:00,63.0,58.8,29.88,East,90,9.0,10.0,86,-99.99,,,0.00,0.00,VWS V14.01,2013-04-19 08:14:00,
2013-04-19 04:19:00,63.0,59.1,29.87,ESE,112,9.0,12.0,87,-99.99,,,0.00,0.00,VWS V14.01,2013-04-19 08:19:00,
2013-04-19 04:24:00,63.0,58.8,29.87,ESE,112,10.0,13.0,86,-99.99,,,0.00,0.00,VWS V14.01,2013-04-19 08:24:00,
2013-04-19 04:29:00,63.0,58.8,29.86,ESE,112,11.0,12.0,86,-99.99,,,0.00,0.00,VWS V14.01,2013-04-19 08:29:00,
2013-04-19 04:34:00,63.0,58.4,29.87,ESE,112,7.0,13.0,85,-99.99,,,0.00,0.00,VWS V14.01,2013-04-19 08:34:00,
2013-04-19 04:39:00,63.0,58.8,29.86,ESE,112,7.0,10.0,86,-99.99,,,0.00,0.00,VWS V14.01,2013-04-19 08:39:00,
2013-04-19 04:44:00,63.0,58.4,29.86,ESE,112,13.0,17.0,85,-99.99,,,0.00,0.00,VWS V14.01,2013-04-19 08:44:00,
2013-04-19 04:49:00,63.0,58.4,29.86,SE,135,8.0,10.0,85,-99.99,,,0.00,0.00,VWS V14.01,2013-04-19 08:49:00,
2013-04-19 04:54:00,63.0,58.4,29.86,ESE,112,13.0,16.0,85,-99.99,,,0.00,0.00,VWS V14.01,2013-04-19 08:54:00,
2013-04-19 04:59:00,63.0,58.4,29.86,SE,135,18.0,21.0,85,-99.99,,,0.00,0.00,VWS V14.01,2013-04-19 08:59:00,
2013-04-19 05:04:00,63.0,58.8,29.86,ESE,112,17.0,18.0,86,-99.99,,,0.00,0.00,VWS V14.01,2013-04-19 09:04:00,
2013-04-19 05:09:00,63.0,58.8,29.86,SE,135,10.0,14.0,86,-99.99,,,0.00,0.00,VWS V14.01,2013-04-19 09:09:00,
2013-04-19 05:14:00,63.0,58.4,29.86,ESE,112,10.0,13.0,85,-99.99,,,0.00,0.00,VWS V14.01,2013-04-19 09:14:00,
2013-04-19 05:19:00,63.0,58.4,29.86,SE,135,10.0,11.0,85,-99.99,,,0.00,0.00,VWS V14.01,2013-04-19 09:19:00,
2013-04-19 05:24:00,63.0,58.4,29.86,SE,135,10.0,13.0,85,-99.99,,,0.00,0.00,VWS V14.01,2013-04-19 09:24:00,
2013-04-19 05:29:00,63.0,58.4,29.87,East,90,8.0,8.0,85,-99.99,,,0.00,0.00,VWS V14.01,2013-04-19 09:29:00,
2013-04-19 05:34:00,63.0,58.4,29.86,ESE,112,8.0,10.0,85,-99.99,,,0.00,0.00,VWS V14.01,2013-04-19 09:34:00,
2013-04-19 05:39:00,63.0,58.4,29.87,SE,135,6.0,6.0,85,-99.99,,,0.00,0.00,VWS V14.01,2013-04-19 09:39:00,
2013-04-19 05:44:00,63.0,58.4,29.86,SE,135,9.0,11.0,85,-99.99,,,0.00,0.00,VWS V14.01,2013-04-19 09:44:00,
2013-04-19 05:49:00,63.0,58.4,29.87,SE,135,5.0,7.0,85,-99.99,,,0.00,0.00,VWS V14.01,2013-04-19 09:49:00,
2013-04-19 05:54:00,63.0,58.4,29.86,SE,135,5.0,8.0,85,-99.99,,,0.00,0.00,VWS V14.01,2013-04-19 09:54:00,
2013-04-19 05:59:00,63.0,58.4,29.86,SE,135,6.0,7.0,85,-99.99,,,0.00,0.00,VWS V14.01,2013-04-19 09:59:00,
2013-04-19 06:04:00,63.0,58.4,29.86,ESE,112,4.0,12.0,85,-99.99,,,0.00,0.00,VWS V14.01,2013-04-19 10:04:00,
2013-04-19 06:09:00,63.0,58.4,29.86,ESE,112,6.0,8.0,85,-99.99,,,0.00,10.00,VWS V14.01,2013-04-19 10:09:00,
2013-04-19 06:14:00,63.0,58.8,29.86,ESE,112,8.0,15.0,86,-99.99,,,0.00,10.00,VWS V14.01,2013-04-19 10:14:00,
2013-04-19 06:19:00,63.0,58.8,29.86,SE,135,18.0,20.0,86,-99.99,,,0.00,10.00,VWS V14.01,2013-04-19 10:19:00,
2013-04-19 06:24:00,64.0,59.7,29.86,East,90,13.0,19.0,86,-99.99,,,0.00,10.00,VWS V14.01,2013-04-19 10:24:00,
2013-04-19 06:29:00,64.0,59.4,29.85,SE,135,16.0,22.0,85,-99.99,,,0.00,10.00,VWS V14.01,2013-04-19 10:29:00,
2013-04-19 06:34:00,64.0,59.4,29.86,SSE,158,10.0,15.0,85,-99.99,,,0.00,10.00,VWS V14.01,2013-04-19 10:34:00,
2013-04-19 06:39:00,64.0,59.4,29.86,East,90,5.0,11.0,85,-99.99,,,0.00,20.00,VWS V14.01,2013-04-19 10:39:00,
2013-04-19 06:44:00,64.0,59.4,29.85,SSE,158,12.0,18.0,85,-99.99,,,0.00,20.00,VWS V14.01,2013-04-19 10:44:00,
2013-04-19 06:49:00,64.0,59.4,29.85,ENE,68,10.0,19.0,85,-99.99,,,0.00,30.00,VWS V14.01,2013-04-19 10:49:00,
2013-04-19 06:54:00,64.0,59.4,29.85,ESE,112,17.0,22.0,85,-99.99,,,0.00,40.00,VWS V14.01,2013-04-19 10:54:00,
2013-04-19 06:59:00,64.0,59.7,29.84,ESE,112,15.0,24.0,86,-99.99,,,0.00,50.00,VWS V14.01,2013-04-19 10:59:00,
2013-04-19 07:04:00,64.0,59.7,29.85,ESE,112,18.0,23.0,86,-99.99,,,0.00,60.00,VWS V14.01,2013-04-19 11:04:00,
2013-04-19 07:09:00,64.0,59.7,29.84,ESE,112,13.0,20.0,86,-99.99,,,0.00,80.00,VWS V14.01,2013-04-19 11:09:00,
2013-04-19 07:14:00,64.0,59.4,29.84,East,90,19.0,27.0,85,-99.99,,,0.00,170.00,VWS V14.01,2013-04-19 11:14:00,
2013-04-19 07:19:00,64.0,59.4,29.85,SE,135,9.0,22.0,85,-99.99,,,0.00,80.00,VWS V14.01,2013-04-19 11:19:00,
2013-04-19 07:24:00,64.0,59.4,29.85,ESE,112,13.0,16.0,85,-99.99,,,0.00,80.00,VWS V14.01,2013-04-19 11:24:00,
2013-04-19 07:29:00,64.0,59.4,29.85,SE,135,10.0,10.0,85,-99.99,,,0.00,40.00,VWS V14.01,2013-04-19 11:29:00,
2013-04-19 07:34:00,64.0,59.4,29.85,SE,135,3.0,6.0,85,-99.99,,,0.00,50.00,VWS V14.01,2013-04-19 11:34:00,
2013-04-19 07:40:00,64.0,59.4,29.84,ESE,112,18.0,21.0,85,-99.99,,,0.00,70.00,VWS V14.01,2013-04-19 11:40:00,
2013-04-19 07:45:00,64.0,59.4,29.84,ESE,112,10.0,19.0,85,-99.99,,,0.00,90.00,VWS V14.01,2013-04-19 11:45:00,
2013-04-19 07:50:00,64.0,59.4,29.84,East,90,9.0,13.0,85,-99.99,,,0.00,150.00,VWS V14.01,2013-04-19 11:50:00,
2013-04-19 07:55:00,65.0,60.0,29.84,East,90,7.0,12.0,84,-99.99,,,0.00,120.00,VWS V14.01,2013-04-19 11:55:00,
2013-04-19 08:00:00,65.0,60.0,29.84,ENE,68,8.0,20.0,84,-99.99,,,0.00,110.00,VWS V14.01,2013-04-19 12:00:00,
2013-04-19 08:05:00,65.0,60.0,29.84,ENE,68,12.0,20.0,84,-99.99,,,0.00,100.00,VWS V14.01,2013-04-19 12:05:00,
2013-04-19 08:10:00,65.0,60.0,29.83,East,90,16.0,23.0,84,-99.99,,,0.00,70.00,VWS V14.01,2013-04-19 12:10:00,
2013-04-19 08:15:00,65.0,60.0,29.83,ESE,112,10.0,13.0,84,-99.99,,,0.00,80.00,VWS V14.01,2013-04-19 12:15:00,
2013-04-19 08:20:00,65.0,60.0,29.84,ESE,112,13.0,20.0,84,-99.99,,,0.00,330.00,VWS V14.01,2013-04-19 12:20:00,
2013-04-19 08:25:00,65.0,59.7,29.84,ESE,112,21.0,24.0,83,-99.99,,,0.00,140.00,VWS V14.01,2013-04-19 12:25:00,
2013-04-19 08:30:00,65.0,59.7,29.83,East,90,13.0,21.0,83,-99.99,,,0.00,150.00,VWS V14.01,2013-04-19 12:30:00,
2013-04-19 08:35:00,65.0,59.7,29.82,ENE,68,7.0,19.0,83,-99.99,,,0.00,310.00,VWS V14.01,2013-04-19 12:35:00,
2013-04-19 08:40:00,65.0,59.4,29.81,ESE,112,19.0,24.0,82,-99.99,,,0.00,270.00,VWS V14.01,2013-04-19 12:40:00,
2013-04-19 08:45:00,66.0,59.7,29.81,East,90,15.0,28.0,80,-99.99,,,0.00,260.00,VWS V14.01,2013-04-19 12:45:00,
2013-04-19 08:50:00,66.0,59.7,29.81,ESE,112,16.0,18.0,80,-99.99,,,0.00,270.00,VWS V14.01,2013-04-19 12:50:00,
2013-04-19 08:55:00,66.0,59.0,29.81,SSE,158,21.0,29.0,78,-99.99,,,0.00,300.00,VWS V14.01,2013-04-19 12:55:00,
2013-04-19 09:00:00,67.0,59.6,29.82,SSE,158,9.0,22.0,77,-99.99,,,0.00,260.00,VWS V14.01,2013-04-19 13:00:00,
2013-04-19 09:05:00,67.0,59.2,29.81,NE,45,8.0,25.0,76,-99.99,,,0.00,190.00,VWS V14.01,2013-04-19 13:05:00,
2013-04-19 09:10:00,67.0,59.2,29.81,NE,45,10.0,20.0,76,-99.99,,,0.00,190.00,VWS V14.01,2013-04-19 13:10:00,
2013-04-19 09:15:00,67.0,58.8,29.81,ENE,68,8.0,21.0,75,-99.99,,,0.00,230.00,VWS V14.01,2013-04-19 13:15:00,
2013-04-19 09:20:00,67.0,58.8,29.80,SSE,158,7.0,22.0,75,-99.99,,,0.00,180.00,VWS V14.01,2013-04-19 13:20:00,
2013-04-19 09:25:00,67.0,59.2,29.80,ENE,68,11.0,13.0,76,-99.99,,,0.00,160.00,VWS V14.01,2013-04-19 13:25:00,
2013-04-19 09:30:00,67.0,59.2,29.80,East,90,11.0,16.0,76,-99.99,,,0.00,210.00,VWS V14.01,2013-04-19 13:30:00,
2013-04-19 09:35:00,67.0,58.8,29.80,South,180,7.0,28.0,75,-99.99,,,0.00,300.00,VWS V14.01,2013-04-19 13:35:00,
2013-04-19 09:40:00,67.0,59.2,29.80,SSE,158,12.0,18.0,76,-99.99,,,0.00,180.00,VWS V14.01,2013-04-19 13:40:00,
2013-04-19 09:45:00,67.0,59.2,29.79,East,90,22.0,27.0,76,-99.99,,,0.00,190.00,VWS V14.01,2013-04-19 13:45:00,
2013-04-19 09:50:00,67.0,59.6,29.79,SE,135,17.0,18.0,77,-99.99,,,0.00,230.00,VWS V14.01,2013-04-19 13:50:00,
2013-04-19 09:55:00,67.0,59.6,29.79,SE,135,21.0,31.0,77,-99.99,,,0.00,190.00,VWS V14.01,2013-04-19 13:55:00,
2013-04-19 10:00:00,67.0,59.6,29.79,ENE,68,10.0,30.0,77,-99.99,,,0.00,180.00,VWS V14.01,2013-04-19 14:00:00,
2013-04-19 10:05:00,67.0,59.6,29.79,ENE,68,12.0,21.0,77,-99.99,,,0.00,210.00,VWS V14.01,2013-04-19 14:05:00,
2013-04-19 10:10:00,67.0,59.9,29.78,SE,135,14.0,14.0,78,-99.99,,,0.00,160.00,VWS V14.01,2013-04-19 14:10:00,
2013-04-19 10:15:00,67.0,59.6,29.77,SE,135,19.0,26.0,77,-99.99,,,0.00,370.00,VWS V14.01,2013-04-19 14:15:00,
2013-04-19 10:20:00,68.0,60.5,29.77,SE,135,14.0,22.0,77,-99.99,,,0.00,800.00,VWS V14.01,2013-04-19 14:20:00,
2013-04-19 10:25:00,68.0,60.2,29.76,ESE,112,14.0,24.0,76,-99.99,,,0.00,340.00,VWS V14.01,2013-04-19 14:25:00,
2013-04-19 10:30:00,68.0,60.2,29.76,ESE,112,21.0,33.0,76,-99.99,,,0.00,220.00,VWS V14.01,2013-04-19 14:30:00,
2013-04-19 10:35:00,68.0,60.2,29.77,SSE,158,17.0,19.0,76,-99.99,,,0.00,280.00,VWS V14.01,2013-04-19 14:35:00,
2013-04-19 10:40:00,68.0,60.2,29.76,ENE,68,6.0,25.0,76,-99.99,,,0.00,320.00,VWS V14.01,2013-04-19 14:40:00,
2013-04-19 10:45:00,68.0,59.4,29.76,SE,135,21.0,37.0,74,-99.99,,,0.00,240.00,VWS V14.01,2013-04-19 14:45:00,
2013-04-19 10:50:00,68.0,59.8,29.76,ENE,68,13.0,23.0,75,-99.99,,,0.00,200.00,VWS V14.01,2013-04-19 14:50:00,
2013-04-19 10:55:00,68.0,59.8,29.76,SSE,158,9.0,28.0,75,-99.99,,,0.00,180.00,VWS V14.01,2013-04-19 14:55:00,
2013-04-19 11:00:00,68.0,59.8,29.76,East,90,11.0,22.0,75,-99.99,,,0.00,260.00,VWS V14.01,2013-04-19 15:00:00,
2013-04-19 11:05:00,69.0,60.8,29.75,ESE,112,13.0,17.0,75,-99.99,,,0.00,350.00,VWS V14.01,2013-04-19 15:05:00,
2013-04-19 11:10:00,69.0,60.0,29.76,SSE,158,9.0,21.0,73,-99.99,,,0.00,200.00,VWS V14.01,2013-04-19 15:10:00,
2013-04-19 11:15:00,69.0,60.0,29.76,South,180,8.0,22.0,73,-99.99,,,0.00,100.00,VWS V14.01,2013-04-19 15:15:00,
2013-04-19 11:20:00,69.0,60.4,29.77,SE,135,14.0,17.0,74,-99.99,,,0.00,110.00,VWS V14.01,2013-04-19 15:20:00,
2013-04-19 11:25:00,68.0,59.4,29.76,SE,135,18.0,27.0,74,-99.99,,,0.00,130.00,VWS V14.01,2013-04-19 15:25:00,
2013-04-19 11:30:00,69.0,60.4,29.76,East,90,12.0,21.0,74,-99.99,,,0.00,150.00,VWS V14.01,2013-04-19 15:30:00,
2013-04-19 11:35:00,69.0,60.4,29.75,SE,135,18.0,22.0,74,-99.99,,,0.00,350.00,VWS V14.01,2013-04-19 15:35:00,
2013-04-19 11:40:00,69.0,60.0,29.75,ENE,68,7.0,19.0,73,-99.99,,,0.00,260.00,VWS V14.01,2013-04-19 15:40:00,
2013-04-19 11:45:00,69.0,60.0,29.75,ESE,112,19.0,26.0,73,-99.99,,,0.00,210.00,VWS V14.01,2013-04-19 15:45:00,
2013-04-19 11:50:00,69.0,60.0,29.75,SE,135,10.0,19.0,73,-99.99,,,0.00,270.00,VWS V14.01,2013-04-19 15:50:00,
2013-04-19 11:55:00,69.0,60.0,29.74,SSE,158,18.0,26.0,73,-99.99,,,0.00,250.00,VWS V14.01,2013-04-19 15:55:00,
2013-04-19 12:00:00,69.0,60.0,29.74,ENE,68,9.0,18.0,73,-99.99,,,0.00,110.00,VWS V14.01,2013-04-19 16:00:00,
2013-04-19 12:05:00,69.0,60.0,29.75,SE,135,9.0,16.0,73,-99.99,,,0.00,110.00,VWS V14.01,2013-04-19 16:05:00,
2013-04-19 12:10:00,69.0,60.4,29.74,SW,225,6.0,16.0,74,-99.99,,,0.00,90.00,VWS V14.01,2013-04-19 16:10:00,
2013-04-19 12:15:00,69.0,60.4,29.74,SE,135,16.0,23.0,74,-99.99,,,0.00,130.00,VWS V14.01,2013-04-19 16:15:00,
2013-04-19 12:20:00,69.0,60.4,29.73,East,90,14.0,22.0,74,-99.99,,,0.00,150.00,VWS V14.01,2013-04-19 16:20:00,
2013-04-19 12:25:00,70.0,61.3,29.73,ENE,68,7.0,22.0,74,-99.99,,,0.00,100.00,VWS V14.01,2013-04-19 16:25:00,
2013-04-19 12:30:00,70.0,61.3,29.73,ESE,112,13.0,20.0,74,-99.99,,,0.00,140.00,VWS V14.01,2013-04-19 16:30:00,
2013-04-19 12:35:00,70.0,61.3,29.72,ESE,112,15.0,16.0,74,-99.99,,,0.00,270.00,VWS V14.01,2013-04-19 16:35:00,
2013-04-19 12:40:00,70.0,61.0,29.72,ENE,68,9.0,18.0,73,-99.99,,,0.00,200.00,VWS V14.01,2013-04-19 16:40:00,
2013-04-19 12:45:00,70.0,61.0,29.73,ESE,112,29.0,30.0,73,-99.99,,,0.00,190.00,VWS V14.01,2013-04-19 16:45:00,
2013-04-19 12:50:00,70.0,61.0,29.73,SSE,158,15.0,18.0,73,-99.99,,,0.00,100.00,VWS V14.01,2013-04-19 16:50:00,
2013-04-19 12:55:00,70.0,61.0,29.73,ESE,112,19.0,22.0,73,-99.99,,,0.00,80.00,VWS V14.01,2013-04-19 16:55:00,
2013-04-19 13:00:00,70.0,61.3,29.72,East,90,7.0,14.0,74,-99.99,,,0.00,140.00,VWS V14.01,2013-04-19 17:00:00,
2013-04-19 13:05:00,70.0,61.3,29.73,ESE,112,13.0,14.0,74,-99.99,,,0.00,80.00,VWS V14.01,2013-04-19 17:05:00,
2013-04-19 13:10:00,70.0,61.3,29.72,SE,135,17.0,17.0,74,-99.99,,,0.00,130.00,VWS V14.01,2013-04-19 17:10:00,
2013-04-19 13:15:00,70.0,61.3,29.72,SE,135,11.0,11.0,74,-99.99,,,0.00,190.00,VWS V14.01,2013-04-19 17:15:00,
2013-04-19 13:20:00,70.0,61.3,29.71,South,180,14.0,18.0,74,-99.99,,,0.00,210.00,VWS V14.01,2013-04-19 17:20:00,
2013-04-19 13:25:00,71.0,61.9,29.71,SE,135,17.0,19.0,73,-99.99,,,0.00,140.00,VWS V14.01,2013-04-19 17:25:00,
2013-04-19 13:30:00,71.0,61.9,29.71,SE,135,8.0,23.0,73,-99.99,,,0.00,210.00,VWS V14.01,2013-04-19 17:30:00,
2013-04-19 13:35:00,71.0,61.9,29.70,ENE,68,14.0,21.0,73,-99.99,,,0.00,180.00,VWS V14.01,2013-04-19 17:35:00,
2013-04-19 13:40:00,71.0,61.5,29.70,SE,135,22.0,24.0,72,-99.99,,,0.00,140.00,VWS V14.01,2013-04-19 17:40:00,
2013-04-19 13:45:00,71.0,61.5,29.70,ESE,112,8.0,13.0,72,-99.99,,,0.00,160.00,VWS V14.01,2013-04-19 17:45:00,
2013-04-19 13:50:00,71.0,61.5,29.69,NE,45,15.0,27.0,72,-99.99,,,0.00,220.00,VWS V14.01,2013-04-19 17:50:00,
2013-04-19 13:55:00,71.0,61.5,29.69,SSE,158,11.0,16.0,72,-99.99,,,0.00,160.00,VWS V14.01,2013-04-19 17:55:00,
2013-04-19 14:00:00,71.0,61.5,29.68,East,90,16.0,22.0,72,-99.99,,,0.00,170.00,VWS V14.01,2013-04-19 18:00:00,
2013-04-19 14:05:00,72.0,62.5,29.67,SE,135,21.0,32.0,72,-99.99,,,0.00,180.00,VWS V14.01,2013-04-19 18:05:00,
2013-04-19 14:10:00,72.0,62.5,29.67,East,90,14.0,26.0,72,-99.99,,,0.00,220.00,VWS V14.01,2013-04-19 18:10:00,
2013-04-19 14:15:00,72.0,62.5,29.66,ESE,112,17.0,19.0,72,-99.99,,,0.00,170.00,VWS V14.01,2013-04-19 18:15:00,
2013-04-19 14:20:00,72.0,62.5,29.65,ESE,112,14.0,30.0,72,-99.99,,,0.00,240.00,VWS V14.01,2013-04-19 18:20:00,
2013-04-19 14:25:00,72.0,62.5,29.65,ESE,112,19.0,28.0,72,-99.99,,,0.00,280.00,VWS V14.01,2013-04-19 18:25:00,
2013-04-19 14:30:00,72.0,62.5,29.64,East,90,16.0,16.0,72,-99.99,,,0.00,340.00,VWS V14.01,2013-04-19 18:30:00,
2013-04-19 14:35:00,72.0,62.5,29.63,NE,45,12.0,22.0,72,-99.99,,,0.00,320.00,VWS V14.01,2013-04-19 18:35:00,
2013-04-19 14:40:00,72.0,62.1,29.63,ESE,112,11.0,21.0,71,-99.99,,,0.00,200.00,VWS V14.01,2013-04-19 18:40:00,
2013-04-19 14:45:00,72.0,62.5,29.63,ESE,112,26.0,28.0,72,-99.99,,,0.00,230.00,VWS V14.01,2013-04-19 18:45:00,
2013-04-19 14:50:00,72.0,62.5,29.62,SE,135,10.0,29.0,72,-99.99,,,0.00,160.00,VWS V14.01,2013-04-19 18:50:00,
2013-04-19 14:55:00,72.0,62.9,29.60,ESE,112,27.0,29.0,73,-99.99,,,0.00,290.00,VWS V14.01,2013-04-19 18:55:00,
2013-04-19 15:00:00,72.0,62.1,29.60,ESE,112,18.0,22.0,71,-99.99,,,0.00,750.00,VWS V14.01,2013-04-19 19:00:00,
2013-04-19 15:05:00,73.0,62.2,29.61,East,90,16.0,28.0,69,-99.99,,,0.00,320.00,VWS V14.01,2013-04-19 19:05:00,
2013-04-19 15:10:00,73.0,62.2,29.60,ESE,112,22.0,30.0,69,-99.99,,,0.00,370.00,VWS V14.01,2013-04-19 19:10:00,
2013-04-19 15:15:00,73.0,62.7,29.60,SE,135,20.0,28.0,70,-99.99,,,0.00,150.00,VWS V14.01,2013-04-19 19:15:00,
2013-04-19 15:20:00,73.0,62.2,29.61,SE,135,18.0,30.0,69,-99.99,,,0.00,150.00,VWS V14.01,2013-04-19 19:20:00,
2013-04-19 15:25:00,73.0,62.7,29.61,SE,135,22.0,33.0,70,-99.99,,,0.00,160.00,VWS V14.01,2013-04-19 19:25:00,
2013-04-19 15:30:00,73.0,62.7,29.61,ESE,112,10.0,24.0,70,-99.99,,,0.00,130.00,VWS V14.01,2013-04-19 19:30:00,
2013-04-19 15:35:00,73.0,62.7,29.61,ESE,112,11.0,23.0,70,-99.99,,,0.00,100.00,VWS V14.01,2013-04-19 19:35:00,
2013-04-19 15:40:00,73.0,62.7,29.61,SE,135,13.0,25.0,70,-99.99,,,0.00,70.00,VWS V14.01,2013-04-19 19:40:00,
2013-04-19 15:45:00,73.0,62.7,29.61,ESE,112,25.0,26.0,70,-99.99,,,0.00,70.00,VWS V14.01,2013-04-19 19:45:00,
2013-04-19 15:50:00,73.0,63.5,29.60,East,90,14.0,21.0,72,-99.99,,,0.00,120.00,VWS V14.01,2013-04-19 19:50:00,
2013-04-19 15:55:00,73.0,63.0,29.60,ESE,112,14.0,19.0,71,-99.99,,,0.00,70.00,VWS V14.01,2013-04-19 19:55:00,
2013-04-19 16:00:00,73.0,63.0,29.60,SE,135,18.0,19.0,71,-99.99,,,0.00,80.00,VWS V14.01,2013-04-19 20:00:00,
2013-04-19 16:05:00,73.0,63.0,29.60,ESE,112,21.0,23.0,71,-99.99,,,0.00,60.00,VWS V14.01,2013-04-19 20:05:00,
2013-04-19 16:10:00,73.0,63.0,29.60,SSE,158,16.0,20.0,71,-99.99,,,0.00,90.00,VWS V14.01,2013-04-19 20:10:00,
2013-04-19 16:15:00,73.0,63.5,29.60,East,90,9.0,18.0,72,-99.99,,,0.00,140.00,VWS V14.01,2013-04-19 20:15:00,
2013-04-19 16:20:00,73.0,63.8,29.59,SE,135,17.0,19.0,73,-99.99,,,0.00,100.00,VWS V14.01,2013-04-19 20:20:00,
2013-04-19 16:25:00,73.0,63.5,29.59,East,90,16.0,16.0,72,-99.99,,,0.00,100.00,VWS V14.01,2013-04-19 20:25:00,
2013-04-19 16:30:00,73.0,63.5,29.58,East,90,12.0,25.0,72,-99.99,,,0.00,100.00,VWS V14.01,2013-04-19 20:30:00,
2013-04-19 16:35:00,73.0,63.5,29.58,East,90,13.0,20.0,72,-99.99,,,0.00,120.00,VWS V14.01,2013-04-19 20:35:00,
2013-04-19 16:40:00,73.0,63.5,29.58,NE,45,9.0,22.0,72,-99.99,,,0.00,140.00,VWS V14.01,2013-04-19 20:40:00,
2013-04-19 16:45:00,73.0,63.5,29.58,ESE,112,18.0,30.0,72,-99.99,,,0.00,160.00,VWS V14.01,2013-04-19 20:45:00,
2013-04-19 16:50:00,73.0,63.5,29.58,SE,135,21.0,32.0,72,-99.99,,,0.00,160.00,VWS V14.01,2013-04-19 20:50:00,
2013-04-19 16:55:00,73.0,63.8,29.58,SE,135,21.0,25.0,73,-99.99,,,0.00,140.00,VWS V14.01,2013-04-19 20:55:00,
2013-04-19 17:00:00,73.0,63.5,29.58,ESE,112,13.0,22.0,72,-99.99,,,0.00,80.00,VWS V14.01,2013-04-19 21:00:00,
2013-04-19 17:05:00,73.0,63.5,29.58,East,90,10.0,27.0,72,-99.99,,,0.00,80.00,VWS V14.01,2013-04-19 21:05:00,
2013-04-19 17:10:00,73.0,63.5,29.58,South,180,6.0,14.0,72,-99.99,,,0.00,60.00,VWS V14.01,2013-04-19 21:10:00,
2013-04-19 17:15:00,73.0,63.5,29.58,ESE,112,17.0,17.0,72,-99.99,,,0.00,50.00,VWS V14.01,2013-04-19 21:15:00,
2013-04-19 17:20:00,73.0,63.8,29.58,ESE,112,16.0,24.0,73,-99.99,,,0.00,40.00,VWS V14.01,2013-04-19 21:20:00,
2013-04-19 17:25:00,73.0,64.2,29.57,SE,135,13.0,25.0,74,-99.99,,,0.00,40.00,VWS V14.01,2013-04-19 21:25:00,
2013-04-19 17:30:00,73.0,64.2,29.57,ESE,112,17.0,31.0,74,-99.99,,,0.00,30.00,VWS V14.01,2013-04-19 21:30:00,
2013-04-19 17:35:00,73.0,64.2,29.57,East,90,7.0,24.0,74,-99.99,,,0.00,20.00,VWS V14.01,2013-04-19 21:35:00,
2013-04-19 17:40:00,72.0,63.7,29.57,ESE,112,19.0,19.0,75,-99.99,,,0.00,30.00,VWS V14.01,2013-04-19 21:40:00,
2013-04-19 17:45:00,72.0,64.4,29.57,SE,135,8.0,8.0,77,-99.99,,,0.00,30.00,VWS V14.01,2013-04-19 21:45:00,
2013-04-19 17:50:00,71.0,64.2,29.57,ESE,112,20.0,28.0,79,-99.99,,,0.00,20.00,VWS V14.01,2013-04-19 21:50:00,
2013-04-19 17:55:00,71.0,64.9,29.56,SSE,158,12.0,22.0,81,-99.99,,,0.01,30.00,VWS V14.01,2013-04-19 21:55:00,
2013-04-19 18:00:00,70.0,64.6,29.57,SE,135,24.0,27.0,83,-99.99,,,0.02,40.00,VWS V14.01,2013-04-19 22:00:00,
2013-04-19 18:05:00,70.0,65.3,29.57,East,90,23.0,26.0,85,-99.99,,,0.02,30.00,VWS V14.01,2013-04-19 22:05:00,
2013-04-19 18:10:00,69.0,65.0,29.57,ESE,112,20.0,22.0,87,-99.99,,,0.03,20.00,VWS V14.01,2013-04-19 22:10:00,
2013-04-19 18:15:00,69.0,65.3,29.57,ESE,112,25.0,28.0,88,-99.99,,,0.03,20.00,VWS V14.01,2013-04-19 22:15:00,
2013-04-19 18:20:00,69.0,65.6,29.56,ESE,112,22.0,23.0,89,-99.99,,,0.05,30.00,VWS V14.01,2013-04-19 22:20:00,
2013-04-19 18:25:00,69.0,65.6,29.56,SE,135,17.0,18.0,89,-99.99,,,0.06,30.00,VWS V14.01,2013-04-19 22:25:00,
2013-04-19 18:30:00,69.0,65.6,29.55,East,90,10.0,12.0,89,-99.99,,,0.06,30.00,VWS V14.01,2013-04-19 22:30:00,
2013-04-19 18:35:00,69.0,65.6,29.53,ESE,112,21.0,21.0,89,-99.99,,,0.06,20.00,VWS V14.01,2013-04-19 22:35:00,
2013-04-19 18:40:00,69.0,65.3,29.52,NE,45,12.0,25.0,88,-99.99,,,0.06,20.00,VWS V14.01,2013-04-19 22:40:00,
2013-04-19 18:45:00,69.0,65.6,29.52,East,90,19.0,22.0,89,-99.99,,,0.06,10.00,VWS V14.01,2013-04-19 22:45:00,
2013-04-19 18:50:00,69.0,65.3,29.56,South,180,12.0,21.0,88,-99.99,,,0.07,0.00,VWS V14.01,2013-04-19 22:50:00,
2013-04-19 18:55:00,64.0,60.4,29.60,SSW,202,8.0,45.0,88,-99.99,,,0.36,0.00,VWS V14.01,2013-04-19 22:55:00,
2013-04-19 19:00:00,61.0,59.0,29.62,SW,225,24.0,36.0,93,-99.99,,,0.47,0.00,VWS V14.01,2013-04-19 23:00:00,
2013-04-19 19:05:00,61.0,59.9,29.63,SW,225,14.0,24.0,96,-99.99,,,0.48,0.00,VWS V14.01,2013-04-19 23:05:00,
2013-04-19 19:10:00,58.0,56.6,29.63,SW,225,13.0,26.0,95,-99.99,,,0.49,0.00,VWS V14.01,2013-04-19 23:10:00,
2013-04-19 19:15:00,57.0,55.6,29.63,WSW,248,22.0,24.0,95,-99.99,,,0.49,0.00,VWS V14.01,2013-04-19 23:15:00,
2013-04-19 19:20:00,57.0,55.6,29.63,WSW,248,14.0,18.0,95,-99.99,,,0.50,0.00,VWS V14.01,2013-04-19 23:20:00,
2013-04-19 19:25:00,57.0,55.6,29.65,SW,225,10.0,15.0,95,-99.99,,,0.50,0.00,VWS V14.01,2013-04-19 23:25:00,
2013-04-19 19:30:00,57.0,55.9,29.66,WSW,248,17.0,22.0,96,-99.99,,,0.51,0.00,VWS V14.01,2013-04-19 23:30:00,
2013-04-19 19:35:00,57.0,55.9,29.67,SW,225,9.0,11.0,96,-99.99,,,0.52,0.00,VWS V14.01,2013-04-19 23:35:00,
2013-04-19 19:40:00,57.0,55.9,29.68,SW,225,10.0,10.0,96,-99.99,,,0.54,0.00,VWS V14.01,2013-04-19 23:40:00,
2013-04-19 19:45:00,56.0,55.2,29.68,WSW,248,13.0,19.0,97,-99.99,,,0.56,0.00,VWS V14.01,2013-04-19 23:45:00,
2013-04-19 19:50:00,56.0,55.2,29.67,West,270,12.0,21.0,97,-99.99,,,0.58,0.00,VWS V14.01,2013-04-19 23:50:00,
2013-04-19 19:55:00,56.0,54.9,29.69,WSW,248,19.0,19.0,96,-99.99,,,0.58,0.00,VWS V14.01,2013-04-19 23:55:00,
2013-04-19 20:00:00,55.0,53.9,29.68,SW,225,16.0,22.0,96,-99.99,,,0.59,0.00,VWS V14.01,2013-04-20 00:00:00,
2013-04-19 20:05:00,55.0,53.9,29.68,SW,225,7.0,11.0,96,-99.99,,,0.59,0.00,VWS V14.01,2013-04-20 00:05:00,
2013-04-19 20:10:00,55.0,53.9,29.70,WSW,248,11.0,12.0,96,-99.99,,,0.60,0.00,VWS V14.01,2013-04-20 00:10:00,
2013-04-19 20:15:00,54.0,52.9,29.71,WSW,248,14.0,22.0,96,-99.99,,,0.60,0.00,VWS V14.01,2013-04-20 00:15:00,
2013-04-19 20:20:00,54.0,52.9,29.72,WSW,248,11.0,14.0,96,-99.99,,,0.60,0.00,VWS V14.01,2013-04-20 00:20:00,
2013-04-19 20:25:00,54.0,52.9,29.70,West,270,11.0,17.0,96,-99.99,,,0.60,0.00,VWS V14.01,2013-04-20 00:25:00,
2013-04-19 20:30:00,54.0,52.9,29.71,West,270,14.0,18.0,96,-99.99,,,0.61,0.00,VWS V14.01,2013-04-20 00:30:00,
2013-04-19 20:35:00,53.0,51.6,29.71,WSW,248,15.0,20.0,95,-99.99,,,0.61,0.00,VWS V14.01,2013-04-20 00:35:00,
2013-04-19 20:40:00,53.0,51.6,29.70,WSW,248,13.0,18.0,95,-99.99,,,0.61,0.00,VWS V14.01,2013-04-20 00:40:00,
2013-04-19 20:45:00,53.0,51.6,29.72,WSW,248,13.0,16.0,95,-99.99,,,0.61,0.00,VWS V14.01,2013-04-20 00:45:00,
2013-04-19 20:50:00,53.0,51.6,29.72,West,270,10.0,11.0,95,-99.99,,,0.61,0.00,VWS V14.01,2013-04-20 00:50:00,
2013-04-19 20:55:00,53.0,51.6,29.72,SSW,202,9.0,11.0,95,-99.99,,,0.61,0.00,VWS V14.01,2013-04-20 00:55:00,
2013-04-19 21:00:00,53.0,51.3,29.72,South,180,7.0,10.0,94,-99.99,,,0.61,0.00,VWS V14.01,2013-04-20 01:00:00,
2013-04-19 21:05:00,53.0,51.0,29.72,SW,225,11.0,17.0,93,-99.99,,,0.61,0.00,VWS V14.01,2013-04-20 01:05:00,
2013-04-19 21:10:00,54.0,51.4,29.72,WSW,248,10.0,16.0,91,-99.99,,,0.61,0.00,VWS V14.01,2013-04-20 01:10:00,
2013-04-19 21:15:00,54.0,50.8,29.72,SW,225,16.0,18.0,89,-99.99,,,0.61,0.00,VWS V14.01,2013-04-20 01:15:00,
2013-04-19 21:20:00,54.0,49.3,29.72,SSW,202,14.0,16.0,84,-99.99,,,0.61,0.00,VWS V14.01,2013-04-20 01:20:00,
2013-04-19 21:25:00,54.0,48.6,29.73,SW,225,12.0,15.0,82,-99.99,,,0.61,0.00,VWS V14.01,2013-04-20 01:25:00,
2013-04-19 21:30:00,54.0,48.0,29.73,SW,225,10.0,15.0,80,-99.99,,,0.61,0.00,VWS V14.01,2013-04-20 01:30:00,
2013-04-19 21:35:00,54.0,47.6,29.73,SW,225,7.0,11.0,79,-99.99,,,0.61,0.00,VWS V14.01,2013-04-20 01:35:00,
2013-04-19 21:40:00,53.0,46.3,29.73,South,180,12.0,12.0,78,-99.99,,,0.61,0.00,VWS V14.01,2013-04-20 01:40:00,
2013-04-19 21:45:00,53.0,46.3,29.73,SE,135,2.0,2.0,78,-99.99,,,0.61,0.00,VWS V14.01,2013-04-20 01:45:00,
2013-04-19 21:50:00,53.0,45.7,29.74,WSW,248,11.0,13.0,76,-99.99,,,0.61,0.00,VWS V14.01,2013-04-20 01:50:00,
2013-04-19 21:55:00,53.0,45.0,29.74,SSW,202,3.0,13.0,74,-99.99,,,0.61,0.00,VWS V14.01,2013-04-20 01:55:00,
2013-04-19 22:00:00,53.0,45.0,29.74,South,180,6.0,11.0,74,-99.99,,,0.61,0.00,VWS V14.01,2013-04-20 02:00:00,
2013-04-19 22:05:00,53.0,45.0,29.74,SW,225,11.0,14.0,74,-99.99,,,0.61,0.00,VWS V14.01,2013-04-20 02:05:00,
2013-04-19 22:10:00,53.0,45.0,29.74,SSW,202,9.0,11.0,74,-99.99,,,0.61,0.00,VWS V14.01,2013-04-20 02:10:00,
2013-04-19 22:15:00,53.0,45.0,29.75,SSW,202,4.0,6.0,74,-99.99,,,0.61,0.00,VWS V14.01,2013-04-20 02:15:00,
2013-04-19 22:20:00,53.0,45.0,29.75,SSE,158,6.0,6.0,74,-99.99,,,0.61,0.00,VWS V14.01,2013-04-20 02:20:00,
2013-04-19 22:25:00,53.0,45.3,29.74,SW,225,9.0,9.0,75,-99.99,,,0.61,0.00,VWS V14.01,2013-04-20 02:25:00,
2013-04-19 22:30:00,53.0,45.3,29.75,SW,225,5.0,7.0,75,-99.99,,,0.61,0.00,VWS V14.01,2013-04-20 02:30:00,
2013-04-19 22:35:00,52.0,44.3,29.75,SW,225,5.0,11.0,75,-99.99,,,0.61,0.00,VWS V14.01,2013-04-20 02:35:00,
2013-04-19 22:40:00,52.0,44.7,29.75,SW,225,5.0,7.0,76,-99.99,,,0.61,0.00,VWS V14.01,2013-04-20 02:40:00,
2013-04-19 22:45:00,52.0,44.7,29.75,SSE,158,3.0,7.0,76,-99.99,,,0.61,0.00,VWS V14.01,2013-04-20 02:45:00,
2013-04-19 22:50:00,52.0,44.7,29.76,SW,225,4.0,11.0,76,-99.99,,,0.61,0.00,VWS V14.01,2013-04-20 02:50:00,
2013-04-19 22:55:00,52.0,45.0,29.76,SSW,202,8.0,14.0,77,-99.99,,,0.61,0.00,VWS V14.01,2013-04-20 02:55:00,
2013-04-19 22:56:00,51.0,45.1,29.78,SW,225,8.0,8.0,80,-99.99,,,0.61,0.00,VWS V14.01,2013-04-20 02:56:00,
2013-04-19 22:57:00,51.0,45.1,29.78,SSW,202,6.0,8.0,80,-99.99,,,0.61,0.00,VWS V14.01,2013-04-20 02:57:00,
2013-04-19 22:58:00,51.0,45.1,29.78,SSW,202,10.0,10.0,80,-99.99,,,0.61,0.00,VWS V14.01,2013-04-20 02:58:00,
2013-04-19 22:59:00,51.0,45.1,29.78,SSW,202,10.0,13.0,80,-99.99,,,0.61,0.00,VWS V14.01,2013-04-20 02:59:00,
2013-04-19 23:00:00,52.0,45.4,29.76,SSE,158,3.0,3.0,78,-99.99,,,0.61,0.00,VWS V14.01,2013-04-20 03:00:00,
2013-04-19 23:01:00,51.0,45.1,29.77,SW,225,7.0,10.0,80,-99.99,,,0.61,0.00,VWS V14.01,2013-04-20 03:01:00,
2013-04-19 23:02:00,51.0,45.1,29.77,SW,225,7.0,9.0,80,-99.99,,,0.61,0.00,VWS V14.01,2013-04-20 03:02:00,
2013-04-19 23:03:00,51.0,45.1,29.77,SW,225,7.0,10.0,80,-99.99,,,0.61,0.00,VWS V14.01,2013-04-20 03:03:00,
2013-04-19 23:05:00,52.0,45.0,29.75,SW,225,6.0,13.0,77,-99.99,,,0.61,0.00,VWS V14.01,2013-04-20 03:05:00,
2013-04-19 23:10:00,52.0,45.7,29.77,SSW,202,4.0,7.0,79,-99.99,,,0.61,0.00,VWS V14.01,2013-04-20 03:10:00,
2013-04-19 23:15:00,52.0,45.4,29.76,SSW,202,9.0,9.0,78,-99.99,,,0.61,0.00,VWS V14.01,2013-04-20 03:15:00,
2013-04-19 23:20:00,52.0,45.7,29.77,WNW,292,4.0,8.0,79,-99.99,,,0.61,0.00,VWS V14.01,2013-04-20 03:20:00,
2013-04-19 23:25:00,51.0,44.4,29.76,WSW,248,5.0,10.0,78,-99.99,,,0.61,0.00,VWS V14.01,2013-04-20 03:25:00,
2013-04-19 23:30:00,51.0,44.7,29.76,SW,225,7.0,10.0,79,-99.99,,,0.61,0.00,VWS V14.01,2013-04-20 03:30:00,
2013-04-19 23:35:00,51.0,44.7,29.75,SW,225,3.0,5.0,79,-99.99,,,0.61,0.00,VWS V14.01,2013-04-20 03:35:00,
2013-04-19 23:40:00,51.0,45.1,29.76,SW,225,4.0,10.0,80,-99.99,,,0.61,0.00,VWS V14.01,2013-04-20 03:40:00,
2013-04-19 23:45:00,51.0,45.1,29.76,East,90,3.0,4.0,80,-99.99,,,0.61,0.00,VWS V14.01,2013-04-20 03:45:00,
2013-04-19 23:50:00,51.0,45.1,29.78,SSW,202,10.0,13.0,80,-99.99,,,0.61,0.00,VWS V14.01,2013-04-20 03:50:00,
2013-04-19 23:55:00,51.0,45.1,29.78,SSW,202,7.0,8.0,80,-99.99,,,0.61,0.00,VWS V14.01,2013-04-20 03:55:00,